Temp
62 62 62 62 62 62 62 62 62 62 63 63 63 63 63 63 63 70 77 89 89 82 81 93 94 93 93 89 94 94 77 75 81 81 81 87 85 92 92 85 86 85 80 82 85
62 62 62 62 62 62 62 62 62 62 62 62 62 63 63 63 70 75 87 85 81 79 93 91 91 94 85 89 90 82 74 80 89 90 85 89 89 88 85 84 78 80 84 85 85
61 61 61 62 62 62 62 62 62 61 61 62 62 63 63 64 71 82 86 84 80 81 94 96 95 92 87 89 91 88 78 88 91 92 93 86 90 92 84 78 80 76 80 83 83
61 61 61 61 61 61 62 62 61 61 61 62 62 63 64 68 70 92 82 83 80 90 93 93 91 84 81 81 92 84 91 92 88 93 92 87 90 88 86 83 87 86 86 85 83
60 60 60 60 61 61 61 61 60 60 61 62 63 64 62 68 79 90 82 81 88 90 90 89 86 85 81 86 91 88 90 92 90 96 92 94 88 86 85 88 89 89 89 84 84
60 60 60 60 60 60 60 60 60 60 61 63 63 64 64 70 98 92 90 87 92 89 89 91 89 92 88 89 85 91 93 91 89 95 93 86 86 86 86 89 88 87 85 86 86
59 59 59 59 60 60 60 60 60 60 61 64 64 70 75 78 97 93 91 86 90 90 89 95 96 89 89 86 95 90 80 87 88 89 87 87 75 80 87 89 86 86 86 87 86
59 59 59 59 59 59 59 59 59 60 62 65 65 69 69 98 97 97 93 90 93 93 94 97 97 91 87 92 89 83 77 69 85 89 84 80 65 84 87 85 82 86 87 87 85
59 59 59 59 59 58 58 58 60 62 64 66 61 62 74 92 93 96 96 92 93 94 93 104 95 85 87 78 72 76 68 75 80 89 82 76 65 80 87 85 82 84 85 86 84
58 58 58 58 58 58 57 59 66 63 65 76 79 69 80 88 95 98 97 99 93 91 91 88 82 75 75 69 61 69 74 75 76 84 85 77 72 81 86 85 84 83 84 84 84
58 58 58 58 57 57 56 64 66 66 73 73 77 80 93 96 101 94 98 95 92 85 74 81 70 66 74 80 83 83 82 80 82 88 81 78 77 77 84 85 84 82 82 81 83
58 58 57 57 57 57 54 63 80 84 73 83 84 87 94 97 90 93 98 85 83 73 79 74 68 80 87 87 85 83 78 78 85 87 79 78 77 77 79 85 86 84 83 84 84
57 57 57 57 56 58 69 77 89 87 71 82 89 88 89 94 89 88 92 88 81 76 77 71 77 88 87 84 82 78 73 75 77 83 81 78 70 77 82 87 88 86 87 87 86
57 57 56 55 61 66 73 87 93 90 62 74 81 87 93 93 86 99 97 89 83 77 79 77 87 86 84 83 84 67 86 86 83 74 64 77 57 72 80 73 81 81 83 86 87
57 57 56 55 54 61 79 85 88 82 48 83 83 99 94 87 89 91 99 89 80 81 78 75 81 82 82 84 85 78 86 83 83 73 68 69 62 72 79 68 73 74 80 83 89
57 56 56 60 58 65 75 80 77 59 52 78 88 85 84 87 89 92 90 91 91 83 82 82 91 88 85 90 87 90 82 80 74 67 57 68 65 67 75 76 76 78 82 86 89
56 55 54 61 60 79 75 73 55 52 78 75 80 84 82 80 83 86 82 78 73 66 68 79 83 88 92 80 85 81 66 56 54 54 54 68 64 67 80 85 83 82 83 89 90
55 54 57 65 62 64 67 61 49 68 69 83 84 83 77 82 81 84 79 74 80 77 68 65 66 82 89 81 75 74 69 57 50 52 62 71 61 70 81 84 87 87 88 90 90
54 63 67 74 71 73 62 53 57 67 78 77 79 76 76 82 81 81 78 77 80 81 67 66 69 87 90 88 84 74 70 74 62 64 61 65 73 78 82 82 84 84 81 84 84
51 57 64 79 80 71 59 53 64 77 80 79 70 75 70 78 77 77 77 83 82 86 85 73 63 81 88 87 86 78 79 64 60 50 50 63 64 64 71 75 80 82 83 77 81
53 59 78 86 81 66 55 59 68 78 80 75 72 72 75 76 79 77 77 85 87 86 87 82 69 75 82 76 73 73 66 66 66 61 54 52 61 72 73 75 78 81 82 83 83
57 54 80 84 64 64 59 66 66 75 81 79 78 76 74 78 76 78 78 82 92 89 80 84 69 66 72 82 88 81 73 69 57 57 59 58 58 82 78 79 80 80 83 81 82
49 57 75 78 59 61 67 69 73 73 75 75 75 79 81 76 67 72 78 90 92 88 82 81 74 64 66 72 82 78 78 70 68 64 58 55 60 77 79 80 80 79 80 82 82
51 52 65 67 69 66 64 66 68 79 77 79 77 80 77 75 73 69 76 86 91 91 82 81 72 64 64 65 74 71 76 76 67 58 59 61 66 70 77 76 76 78 78 79 79
53 54 63 55 58 60 63 66 65 67 78 78 73 75 74 68 69 70 77 82 88 86 82 84 65 70 73 78 80 79 79 78 69 66 64 69 69 72 74 74 77 78 79 80 79
46 53 58 55 59 59 59 61 65 69 71 70 71 77 77 70 70 68 74 73 73 81 79 79 63 68 66 80 80 78 83 81 80 78 72 74 73 79 82 77 77 77 78 78 79
57 58 54 52 55 55 58 62 66 71 74 77 77 77 75 78 81 80 85 81 77 70 74 71 65 61 60 72 73 68 73 79 79 80 76 67 72 79 75 76 74 75 78 77 78
MSLP
1017.50 1017.04 1016.47 1015.71 1015.18 1014.75 1014.29 1013.95 1013.71 1013.36 1012.97 1012.51 1012.21 1011.89 1011.57 1011.25 1010.70 1010.19 1008.52 1005.80 1005.29 1004.97 1005.43 1005.15 1004.89 1004.53 1004.01 1003.45 1003.09 1003.39 1003.95 1003.04 1002.57 1002.57 1003.46 1003.35 1004.04 1004.87 1005.91 1007.56 1008.59 1009.61 1011.07 1012.25 1013.13
1017.50 1017.13 1016.66 1016.04 1015.27 1014.68 1014.18 1013.69 1013.33 1013.08 1012.77 1012.47 1012.03 1011.78 1011.63 1011.39 1010.62 1008.72 1005.71 1005.13 1004.93 1005.06 1005.30 1005.06 1004.47 1003.73 1003.69 1002.57 1002.05 1002.12 1002.20 1001.62 1001.24 1001.64 1002.50 1003.06 1003.91 1005.13 1006.53 1007.82 1009.44 1010.52 1011.77 1012.50 1013.12
1017.52 1017.05 1016.63 1016.16 1015.55 1014.77 1014.12 1013.62 1013.11 1012.79 1012.53 1012.22 1011.96 1011.68 1011.46 1011.40 1010.10 1005.86 1003.48 1004.50 1004.78 1004.91 1005.02 1004.89 1004.45 1003.92 1003.07 1002.16 1001.22 1000.92 1000.91 1000.91 1001.16 1001.40 1002.09 1003.07 1004.05 1005.03 1006.49 1008.27 1009.11 1010.17 1011.36 1012.33 1013.12
1017.61 1017.06 1016.55 1016.07 1015.58 1014.97 1014.15 1013.50 1012.98 1012.55 1012.28 1012.00 1011.76 1011.58 1011.39 1011.05 1008.05 1004.19 1003.48 1004.03 1004.69 1004.84 1005.07 1004.77 1004.16 1003.71 1003.14 1002.52 1000.91 1000.40 1000.44 1000.56 1000.99 1001.77 1002.17 1003.24 1004.30 1005.50 1006.44 1007.98 1009.12 1010.09 1010.87 1011.73 1012.54
1017.68 1017.15 1016.51 1015.96 1015.43 1014.90 1014.26 1013.44 1012.81 1012.26 1012.00 1011.74 1011.51 1011.37 1011.45 1009.87 1006.04 1003.99 1004.09 1004.29 1004.83 1004.92 1004.67 1004.54 1004.17 1003.71 1003.04 1001.98 1000.88 1000.54 1000.59 1000.78 1001.01 1001.80 1002.81 1003.69 1004.87 1005.88 1007.22 1008.25 1009.40 1010.01 1010.51 1011.55 1012.08
1017.73 1017.09 1016.51 1015.86 1015.22 1014.59 1014.07 1013.38 1012.63 1012.03 1011.61 1011.40 1011.29 1011.24 1010.78 1007.81 1003.20 1003.44 1004.09 1004.51 1004.38 1004.65 1004.28 1004.05 1003.62 1002.82 1002.43 1001.79 1000.81 1000.39 1000.45 1000.91 1001.37 1002.23 1003.38 1004.45 1005.79 1006.48 1007.91 1008.49 1009.51 1010.22 1010.64 1011.10 1011.60
1017.84 1017.09 1016.39 1015.73 1015.05 1014.32 1013.66 1013.10 1012.46 1011.82 1011.33 1011.09 1011.10 1010.86 1009.20 1005.43 1002.85 1003.19 1003.76 1004.09 1003.92 1004.09 1004.01 1003.53 1002.92 1003.11 1002.45 1001.94 1000.34 1000.55 1000.90 1001.24 1001.79 1002.70 1004.22 1004.81 1007.19 1007.80 1008.44 1008.72 1009.50 1010.19 1010.65 1010.95 1011.31
1017.85 1017.11 1016.30 1015.53 1014.80 1014.09 1013.22 1012.56 1011.91 1011.44 1011.13 1010.87 1010.90 1010.25 1007.30 1002.83 1002.36 1003.12 1003.26 1003.72 1003.66 1003.62 1003.49 1002.76 1002.30 1002.58 1002.33 1001.79 1001.21 1001.10 1001.35 1001.91 1001.98 1002.64 1004.23 1004.50 1007.19 1007.27 1008.19 1009.00 1009.91 1010.16 1010.39 1010.87 1011.28
1017.74 1017.03 1016.21 1015.32 1014.52 1013.79 1012.91 1011.70 1011.00 1010.78 1010.84 1010.79 1010.79 1009.74 1005.68 1002.17 1002.34 1002.17 1002.57 1003.18 1003.37 1003.32 1003.13 1002.69 1002.35 1002.49 1002.45 1002.51 1002.15 1001.53 1001.68 1001.91 1002.19 1002.13 1004.19 1004.61 1007.44 1007.47 1007.77 1008.51 1009.34 1009.73 1010.11 1010.58 1011.18
1017.76 1016.84 1016.02 1015.13 1014.27 1013.57 1012.53 1010.77 1010.22 1010.37 1010.56 1010.22 1009.46 1008.60 1004.52 1001.88 1001.68 1001.78 1002.05 1002.35 1002.93 1003.17 1003.23 1002.89 1002.89 1003.02 1003.09 1003.11 1002.88 1001.91 1001.76 1001.45 1001.68 1002.27 1002.96 1004.69 1006.06 1006.53 1006.89 1007.53 1008.68 1009.21 1009.58 1010.24 1010.79
1017.69 1016.79 1015.75 1014.78 1013.90 1013.59 1012.62 1010.76 1010.29 1009.77 1009.03 1007.13 1005.67 1004.25 1001.81 1001.21 1001.07 1001.60 1001.82 1002.08 1002.46 1003.08 1003.45 1003.37 1003.83 1003.49 1002.95 1002.21 1001.76 1001.60 1001.17 1000.84 1000.57 1001.19 1002.45 1004.07 1005.42 1006.48 1006.53 1007.10 1007.87 1008.58 1009.15 1009.64 1010.27
1017.51 1016.67 1015.63 1014.38 1013.22 1012.83 1013.13 1011.04 1007.18 1006.16 1005.74 1004.92 1003.88 1002.95 1001.73 1001.12 1000.97 1001.26 1001.46 1002.15 1002.47 1003.11 1003.45 1003.74 1003.43 1002.87 1002.27 1001.72 1001.32 1000.83 1000.57 1000.31 1000.10 1000.87 1002.30 1003.89 1004.89 1005.49 1006.12 1006.24 1006.59 1007.51 1008.27 1008.79 1009.47
1017.39 1016.55 1015.57 1014.01 1012.40 1011.58 1010.86 1008.63 1005.99 1005.52 1005.09 1002.90 1002.14 1001.17 1000.47 999.90 1000.19 1000.63 1001.08 1001.54 1002.19 1002.99 1003.10 1003.10 1002.24 1002.09 1001.67 1001.04 1000.68 1000.28 1000.10 1000.04 1000.37 1001.10 1001.85 1003.60 1005.17 1005.52 1005.82 1005.83 1006.08 1006.48 1006.67 1007.54 1008.42
1017.29 1016.47 1015.70 1014.35 1011.65 1011.29 1009.15 1006.91 1005.59 1005.11 1004.55 1001.50 999.83 999.23 999.23 999.35 999.56 999.82 1000.46 1001.23 1001.69 1002.17 1002.61 1002.41 1001.39 1001.32 1000.67 1000.37 999.95 999.91 999.52 999.79 1000.28 1001.58 1002.37 1002.96 1005.10 1005.31 1004.79 1005.49 1005.59 1006.06 1006.31 1006.67 1007.45
1017.02 1016.41 1015.72 1015.92 1014.28 1011.78 1008.07 1007.03 1005.94 1004.97 1003.82 998.57 997.24 996.83 997.81 998.45 998.53 998.91 999.65 1000.73 1001.08 1001.29 1001.93 1001.11 1000.45 1000.31 1000.02 999.38 999.13 999.51 999.61 1000.00 1000.72 1001.60 1002.45 1002.84 1003.75 1004.12 1004.35 1006.00 1005.78 1005.63 1005.63 1005.96 1006.22
1016.63 1015.95 1015.85 1014.10 1013.83 1010.28 1008.99 1007.63 1007.37 1006.11 1002.39 997.94 995.67 996.40 997.53 998.02 998.38 998.41 999.32 1000.07 1000.29 1001.03 1000.76 1000.43 999.40 999.09 998.68 998.44 998.77 999.35 1000.02 1000.67 1001.13 1002.39 1003.56 1003.08 1003.57 1003.21 1003.45 1003.55 1004.50 1004.71 1005.03 1005.28 1005.57
1016.08 1015.01 1015.27 1014.71 1011.46 1008.57 1009.06 1007.69 1007.69 1004.69 1001.09 997.73 995.98 996.32 997.27 997.71 998.15 998.41 999.03 999.90 1000.29 1000.74 1000.75 1000.06 999.20 998.63 998.18 998.40 998.88 999.57 1000.73 1001.89 1003.28 1003.92 1003.93 1003.22 1003.10 1002.26 1000.93 1001.78 1002.55 1003.35 1003.87 1003.69 1004.70
1015.32 1013.86 1011.82 1010.85 1010.03 1010.63 1009.75 1008.35 1006.34 1002.77 1000.72 997.07 996.52 996.47 996.94 997.50 997.79 997.88 998.63 999.24 999.80 1000.17 1000.30 1000.04 999.22 998.06 997.67 998.08 999.00 999.71 1000.81 1002.08 1003.66 1004.50 1003.91 1002.89 1002.43 1001.66 1000.59 1000.70 1001.15 1001.73 1002.75 1003.18 1004.01
1014.68 1011.97 1010.07 1007.79 1008.61 1009.53 1009.52 1007.35 1003.81 1001.84 999.65 997.89 997.72 997.13 996.69 996.78 996.99 997.50 997.56 998.14 998.69 999.21 999.91 999.46 998.80 997.77 997.39 997.57 998.53 999.50 1000.15 1001.09 1003.05 1003.72 1004.02 1002.87 1002.44 1001.42 1000.85 1001.15 1001.47 1002.02 1002.61 1003.07 1003.97
1014.97 1012.01 1007.78 1005.73 1006.65 1008.45 1008.12 1005.20 1002.83 1001.03 999.62 998.86 998.43 997.14 996.90 996.07 996.46 996.58 996.59 996.89 997.29 997.97 998.60 998.57 998.96 997.68 997.23 997.34 997.87 998.70 999.72 1001.05 1002.72 1004.31 1004.49 1003.33 1002.12 1001.74 1001.61 1001.74 1001.77 1002.17 1002.71 1003.73 1004.04
1014.28 1010.81 1004.09 1003.72 1005.81 1006.85 1005.68 1004.31 1002.62 1001.17 1000.06 999.60 998.66 997.62 997.07 996.55 995.26 995.59 995.78 995.84 995.98 996.72 997.65 998.12 998.81 998.01 997.37 997.25 998.02 998.62 999.53 1000.50 1002.12 1003.57 1004.04 1003.66 1003.01 1001.47 1001.70 1001.85 1001.94 1002.23 1002.58 1002.57 1003.36
1013.87 1010.33 1003.65 1004.05 1005.08 1004.95 1004.50 1003.83 1002.31 1000.74 1000.00 998.94 998.53 997.70 997.12 996.12 995.65 994.71 994.52 994.29 994.36 995.43 996.45 997.11 997.78 998.31 997.70 996.91 996.86 997.75 998.94 1000.18 1002.11 1003.10 1003.23 1003.05 1002.49 1001.00 1000.92 1001.61 1001.93 1002.34 1002.55 1002.70 1002.88
1014.58 1010.37 1004.85 1004.33 1004.03 1004.07 1003.72 1002.81 1001.87 1000.72 999.83 999.06 998.17 997.45 996.43 995.98 995.61 994.97 994.38 993.66 993.38 994.10 995.09 996.39 997.33 998.30 997.80 997.13 996.47 997.14 998.15 999.27 1000.28 1001.41 1002.57 1003.13 1002.61 1001.49 1001.11 1001.84 1002.02 1002.43 1002.75 1002.91 1003.02
1015.05 1010.77 1005.87 1004.20 1004.07 1003.76 1003.41 1002.12 1000.77 999.85 998.90 998.52 997.67 997.09 996.35 995.63 995.05 994.56 994.45 993.54 992.93 992.89 993.88 995.28 996.50 997.55 997.59 997.10 996.60 997.01 997.40 998.25 999.52 1000.83 1001.69 1001.84 1002.13 1001.74 1001.32 1001.71 1002.21 1002.55 1002.81 1003.13 1003.30
1015.23 1011.11 1008.63 1006.65 1005.62 1004.96 1003.73 1002.32 1000.68 999.31 998.17 997.81 997.26 996.58 996.10 995.60 994.97 994.69 994.37 993.67 992.70 992.16 993.16 994.54 996.01 996.87 996.87 996.55 996.49 996.15 996.64 997.32 998.47 999.44 1000.64 1000.74 1001.13 1001.02 1001.46 1001.87 1002.08 1002.49 1003.05 1003.59 1003.87
1015.55 1012.27 1010.62 1009.12 1007.39 1005.85 1004.02 1002.50 1000.77 999.37 998.62 997.26 996.59 995.77 995.37 995.28 994.59 994.51 994.27 994.00 993.61 993.01 992.84 993.74 995.58 996.59 997.10 996.33 996.11 996.31 996.29 996.39 997.03 997.86 998.71 999.36 999.85 999.75 1000.57 1001.66 1002.53 1003.02 1003.44 1004.01 1004.29
1014.63 1013.98 1012.65 1010.03 1008.31 1007.02 1004.59 1002.84 1001.26 999.87 997.59 997.17 996.35 995.31 994.45 994.00 993.67 993.73 993.75 993.69 993.56 993.73 993.74 993.58 995.36 996.71 997.36 996.87 996.42 996.21 995.56 995.75 995.93 996.54 997.44 998.63 999.42 999.75 1000.97 1002.07 1002.78 1003.41 1003.84 1004.41 1004.69
Wind_Speed
20 20 20 20 20 19 19 18 17 16 15 15 13 12 11 11 13 4 7 10 5 9 2 6 8 12 13 13 16 13 9 9 7 15 12 15 16 9 19 25 12 9 22 20 18
21 20 20 21 21 20 19 19 18 18 16 14 13 11 9 8 5 10 12 10 6 9 4 7 12 10 6 11 8 4 2 7 13 14 10 16 17 21 21 21 23 22 21 21 19
22 22 21 21 21 21 20 20 20 19 17 14 11 11 9 6 5 10 17 18 9 8 6 10 14 14 14 8 16 9 6 7 10 11 20 11 20 22 22 18 23 27 25 23 21
22 22 23 22 21 22 22 21 21 20 17 14 11 10 6 5 2 2 5 15 10 7 6 6 9 8 7 9 15 4 9 9 3 16 14 11 15 13 18 20 19 23 24 20 18
23 23 23 23 22 22 22 23 22 21 17 13 9 7 4 4 11 6 9 10 7 5 9 11 10 8 11 9 12 2 7 10 2 19 14 18 14 19 21 22 20 17 17 21 17
22 22 22 23 22 22 22 21 21 20 17 12 4 2 3 6 4 12 9 7 8 8 9 11 9 12 13 17 4 3 7 10 2 16 21 21 12 15 18 20 20 16 13 14 16
22 23 23 23 24 24 23 22 22 20 15 9 3 4 6 16 12 11 11 6 7 9 9 11 16 9 10 16 5 4 2 7 7 8 21 22 12 11 14 16 17 15 13 11 11
23 24 24 24 24 24 25 24 24 18 11 5 2 4 9 9 15 11 10 9 10 10 12 13 11 9 6 9 8 5 3 5 8 13 1 14 6 9 16 15 11 14 13 11 9
24 24 25 25 25 25 25 29 23 13 7 2 2 2 10 2 9 9 10 10 11 9 11 16 10 6 9 7 7 6 7 7 7 13 11 10 4 9 17 16 14 14 12 12 8
24 25 26 27 26 25 27 27 4 4 5 7 8 5 9 13 8 8 9 11 10 8 8 4 3 4 6 2 7 7 6 9 9 11 9 14 11 15 21 20 17 13 12 12 10
25 26 27 28 28 23 16 6 0 1 6 11 9 8 9 15 10 9 11 9 7 5 7 7 2 8 13 15 16 13 13 11 11 9 11 19 20 16 17 19 18 14 12 11 12
25 26 28 30 31 26 6 5 11 9 8 17 22 20 21 13 10 12 11 9 8 8 7 5 10 13 17 18 18 13 10 6 10 9 8 18 17 14 21 22 22 20 16 15 13
24 26 28 32 35 9 7 13 13 17 6 17 17 20 15 15 14 15 13 12 9 10 10 11 11 17 18 17 16 11 7 4 10 8 7 12 5 12 19 20 20 21 21 18 18
24 25 26 32 6 8 8 12 13 16 5 9 10 13 20 9 12 17 16 11 7 15 13 13 19 17 19 16 14 7 6 8 4 7 5 11 5 13 15 12 22 17 15 18 19
25 24 24 16 10 6 9 17 20 5 5 9 23 11 16 20 9 17 20 11 16 11 9 12 15 16 17 16 6 6 7 8 6 4 6 4 6 16 13 11 17 13 16 14 22
26 25 22 10 5 14 15 14 6 1 9 9 12 19 23 18 21 10 21 10 12 15 10 15 13 13 9 4 4 9 7 10 2 2 4 8 8 7 15 20 21 17 19 19 21
27 29 19 8 8 4 13 4 1 7 6 9 15 19 22 17 21 20 20 17 15 10 12 12 19 12 10 4 7 7 2 4 4 3 8 8 3 10 16 16 25 22 24 23 22
29 35 11 11 11 12 4 1 9 10 17 12 14 18 22 18 20 21 18 16 17 17 6 8 11 13 7 8 10 9 9 7 8 6 11 8 7 5 5 11 12 10 19 17 21
31 6 7 10 15 7 2 9 10 10 20 15 13 12 16 22 10 22 18 21 19 21 11 8 10 10 10 6 9 9 9 10 5 4 3 4 5 7 8 9 10 9 11 16 19
9 6 10 12 16 9 6 9 9 14 25 21 15 8 8 21 21 19 20 19 21 23 18 9 4 12 10 7 10 10 7 3 4 2 6 6 5 5 8 8 9 9 8 13 14
3 7 11 14 12 8 11 9 16 20 19 11 22 23 19 15 23 21 20 23 22 20 21 19 7 18 10 11 11 5 3 3 7 7 7 2 6 6 10 9 10 8 8 6 8
6 6 4 3 10 7 10 9 12 21 19 20 21 23 23 23 14 22 23 17 21 19 20 20 5 11 15 9 17 13 10 10 7 6 3 7 8 10 12 10 9 9 8 5 5
6 8 9 7 10 10 12 21 25 23 23 22 23 22 22 22 7 2 9 14 18 22 21 13 14 11 12 8 13 15 10 7 6 5 4 4 5 4 10 10 10 10 9 5 5
5 6 5 3 6 13 17 18 22 23 27 24 24 21 22 20 7 7 13 15 16 22 24 16 10 11 14 9 8 9 8 6 7 5 5 6 8 8 13 10 9 9 9 8 4
5 7 8 7 10 16 16 16 23 23 21 22 23 23 21 16 7 9 13 18 18 17 19 21 10 12 11 13 10 14 16 14 9 8 10 12 14 12 7 11 12 10 9 9 6
5 6 10 14 13 16 13 15 17 21 21 21 22 24 20 17 10 8 10 10 7 9 12 12 8 9 7 16 13 15 17 18 19 12 5 7 6 15 14 11 10 10 10 8 7
5 10 7 9 9 10 11 14 21 21 23 23 23 21 22 20 10 9 14 11 8 4 5 10 8 7 9 9 7 9 8 9 11 12 9 8 7 19 14 12 9 8 9 8 7
Wind_Direction
4 1 356 350 346 344 340 338 337 335 330 324 320 317 316 318 305 244 247 234 209 198 204 282 265 232 245 255 248 247 251 231 143 106 121 108 105 105 121 132 160 100 131 132 143
0 358 355 351 345 341 337 335 333 334 330 325 319 316 311 324 277 252 242 233 159 153 231 265 282 286 264 266 274 225 28 66 124 111 129 120 127 116 109 109 111 117 126 140 141
356 354 353 349 345 339 335 332 330 331 329 324 317 313 304 296 282 244 205 212 167 175 269 294 298 291 286 287 279 280 140 86 97 113 104 103 117 122 121 123 133 141 149 154 158
354 350 347 345 341 338 332 330 328 328 326 322 315 308 311 245 252 59 122 163 158 193 250 269 271 273 302 288 288 47 56 95 49 112 109 105 129 124 127 132 133 145 148 142 144
350 347 343 340 337 334 330 326 324 324 324 320 308 305 270 222 250 135 119 131 149 185 227 231 267 276 262 282 276 135 100 110 81 93 91 95 107 109 115 126 135 146 146 145 158
344 342 339 336 333 330 327 323 321 321 320 319 288 292 242 255 132 143 161 161 182 188 227 242 251 253 273 279 249 154 148 128 170 123 111 86 87 105 125 132 144 153 159 158 165
342 339 336 333 331 327 324 321 317 316 313 320 274 238 258 242 137 158 163 197 204 187 226 237 251 270 293 304 71 333 119 130 152 131 123 87 35 103 132 137 151 155 172 167 161
340 337 334 331 328 326 322 318 310 304 297 298 250 258 254 248 238 177 183 194 219 203 234 259 251 260 276 299 310 220 213 142 186 155 345 100 212 157 144 143 165 167 180 159 160
337 335 332 329 327 326 322 313 305 282 245 167 237 238 263 262 191 181 168 185 205 218 236 254 264 266 316 303 315 247 210 190 179 154 157 108 184 229 155 159 178 177 178 159 161
335 333 330 327 325 327 322 302 276 297 218 202 257 290 253 222 192 183 200 200 195 209 238 262 8 288 300 295 249 230 222 229 175 186 159 129 177 190 168 167 180 179 165 163 164
334 331 328 325 321 326 339 345 223 126 247 205 194 234 303 221 175 178 197 212 188 206 199 220 162 232 244 249 250 262 267 184 181 184 148 154 154 169 179 172 174 173 170 164 170
332 330 328 324 318 317 282 246 266 325 293 228 250 238 255 251 172 190 182 184 175 202 204 246 217 232 239 249 260 264 271 251 147 166 109 157 179 176 186 185 174 166 173 172 172
331 330 329 324 316 298 236 253 288 298 272 275 262 236 241 234 187 195 180 205 177 208 205 214 224 227 245 257 263 271 257 294 149 169 153 147 163 194 205 182 171 175 173 173 176
329 329 331 333 325 345 283 317 305 243 284 256 223 235 235 191 211 186 191 189 207 206 224 222 244 219 230 243 249 270 246 272 228 130 177 155 220 205 198 153 163 180 182 178 173
325 326 327 328 299 285 304 333 324 358 273 238 213 182 193 210 147 213 180 200 223 198 185 242 227 237 235 228 226 229 256 245 278 197 167 230 106 208 184 169 187 198 194 197 177
321 318 327 318 210 247 298 283 324 225 241 264 170 188 182 202 220 199 175 195 229 246 231 226 244 237 240 212 206 246 269 274 215 49 7 240 162 239 188 180 195 194 196 203 180
318 310 306 272 240 281 335 313 293 227 237 261 173 173 183 192 212 219 179 190 211 206 240 241 242 246 229 196 235 229 173 347 14 359 230 252 255 229 198 172 185 190 198 192 177
318 307 255 213 227 266 253 212 219 219 240 267 166 176 184 195 205 221 187 191 214 234 209 221 252 237 213 176 204 229 163 156 194 190 236 251 241 239 118 123 121 134 187 184 170
318 285 267 225 211 235 232 220 203 226 211 242 283 235 202 200 192 217 204 197 199 214 212 205 236 257 216 166 196 252 231 203 192 277 3 246 71 29 109 117 119 125 104 160 164
315 279 251 226 167 178 219 233 238 230 264 285 270 265 279 194 205 201 226 198 200 202 221 254 224 233 229 185 240 169 199 245 349 228 272 253 224 193 146 152 126 115 136 163 180
248 280 268 181 158 176 225 223 241 264 267 276 280 288 276 273 203 210 210 229 192 196 210 237 205 266 218 194 194 269 236 190 163 159 201 251 286 177 148 143 139 152 140 125 153
303 272 311 26 178 188 232 232 249 268 274 266 256 264 278 284 275 213 214 214 196 193 206 218 185 235 247 240 184 191 218 176 132 276 226 159 245 160 143 151 136 131 115 82 60
300 276 282 281 215 225 239 241 245 254 255 263 269 271 265 272 281 225 300 256 190 195 206 205 226 247 284 306 190 191 207 209 173 119 238 126 261 177 123 132 133 130 122 107 95
285 291 247 212 258 247 256 255 253 240 248 255 260 269 276 272 267 283 291 290 273 199 197 188 201 180 231 221 179 180 192 213 177 147 235 203 163 191 179 153 135 127 143 155 152
253 255 337 310 325 325 305 272 269 269 248 236 257 258 263 276 254 252 276 288 291 235 187 191 198 206 232 245 250 185 195 208 215 204 174 235 174 195 163 157 156 143 119 100 107
287 337 342 298 302 302 287 278 277 266 265 270 228 250 257 256 220 238 260 280 254 323 186 187 195 173 234 241 243 251 227 201 214 224 225 207 212 175 173 112 107 115 109 105 95
350 330 295 295 301 291 285 299 303 304 256 261 275 242 246 252 240 255 262 264 264 275 254 161 148 132 216 236 255 271 232 230 207 205 188 206 177 123 112 115 124 120 120 130 120